Total_Precipitation_Accumulation
0.06 0.06 0.07 0.07 0.08 0.09 0.10 0.14 0.18 0.17 0.09 0.03 0.02 0.03 0.06 0.13 0.24 0.28 0.27 0.19 0.13 0.09 0.07 0.05 0.04 0.05 0.05 0.06 0.06 0.07 0.09 0.13 0.23 0.34 0.45 0.55 0.60 0.64
0.09 0.09 0.09 0.09 0.09 0.09 0.10 0.12 0.18 0.25 0.20 0.07 0.03 0.05 0.09 0.14 0.28 0.33 0.36 0.32 0.23 0.15 0.10 0.07 0.06 0.06 0.06 0.07 0.07 0.08 0.10 0.13 0.20 0.28 0.40 0.51 0.58 0.69
0.07 0.08 0.08 0.08 0.10 0.09 0.10 0.11 0.13 0.19 0.23 0.11 0.05 0.06 0.12 0.19 0.27 0.30 0.31 0.30 0.26 0.24 0.16 0.13 0.11 0.09 0.09 0.09 0.10 0.14 0.17 0.22 0.27 0.33 0.44 0.55 0.62 0.64
0.07 0.07 0.07 0.08 0.08 0.08 0.09 0.10 0.12 0.17 0.26 0.22 0.11 0.07 0.10 0.17 0.22 0.25 0.23 0.22 0.24 0.28 0.21 0.15 0.12 0.12 0.15 0.13 0.11 0.14 0.20 0.30 0.37 0.42 0.50 0.58 0.62 0.62
0.07 0.07 0.08 0.09 0.08 0.08 0.10 0.12 0.14 0.18 0.26 0.28 0.18 0.12 0.15 0.21 0.30 0.30 0.27 0.32 0.29 0.25 0.21 0.16 0.14 0.15 0.38 0.44 0.21 0.17 0.20 0.33 0.39 0.45 0.54 0.59 0.57 0.53
0.05 0.08 0.09 0.10 0.11 0.14 0.15 0.17 0.22 0.25 0.25 0.27 0.21 0.16 0.18 0.23 0.33 0.40 0.39 0.36 0.34 0.22 0.24 0.21 0.20 0.26 0.63 1.18 0.65 0.33 0.28 0.32 0.38 0.44 0.49 0.48 0.44 0.39
0.05 0.08 0.09 0.10 0.14 0.17 0.17 0.20 0.27 0.32 0.33 0.35 0.30 0.25 0.22 0.29 0.37 0.42 0.42 0.40 0.34 0.26 0.31 0.28 0.43 0.75 1.26 1.92 1.48 0.83 0.60 0.50 0.44 0.44 0.45 0.45 0.39 0.32
0.07 0.08 0.06 0.06 0.07 0.08 0.12 0.19 0.28 0.36 0.42 0.46 0.42 0.36 0.28 0.32 0.42 0.47 0.48 0.47 0.38 0.25 0.29 0.33 0.62 1.33 2.02 2.43 2.05 1.28 0.96 0.76 0.62 0.63 0.64 0.55 0.42 0.32
0.10 0.09 0.06 0.05 0.09 0.13 0.14 0.16 0.21 0.29 0.42 0.54 0.53 0.41 0.37 0.40 0.54 0.61 0.55 0.53 0.49 0.34 0.36 0.40 0.73 1.57 1.98 2.26 2.09 1.43 1.13 0.95 0.85 0.87 0.84 0.63 0.43 0.31
0.08 0.09 0.11 0.13 0.13 0.13 0.13 0.18 0.23 0.29 0.39 0.46 0.50 0.45 0.45 0.47 0.54 0.58 0.54 0.53 0.42 0.32 0.39 0.52 0.82 1.47 1.64 1.75 1.89 1.49 1.21 1.08 1.02 0.99 0.91 0.67 0.47 0.36
0.05 0.08 0.10 0.13 0.12 0.12 0.17 0.26 0.29 0.37 0.51 0.68 0.68 0.63 0.63 0.62 0.53 0.48 0.53 0.57 0.49 0.33 0.35 0.52 0.77 1.14 1.29 1.39 1.47 1.43 1.32 1.23 1.13 1.06 0.94 0.68 0.50 0.41
0.05 0.07 0.09 0.10 0.11 0.14 0.20 0.32 0.43 0.51 0.70 0.90 0.83 0.76 0.68 0.66 0.61 0.52 0.59 0.68 0.62 0.46 0.36 0.45 0.61 0.81 1.05 1.19 1.13 1.09 1.16 1.27 1.24 1.20 1.04 0.75 0.49 0.36
0.07 0.11 0.15 0.15 0.14 0.16 0.25 0.40 0.58 0.64 0.81 1.00 0.84 0.64 0.54 0.47 0.48 0.54 0.57 0.59 0.55 0.49 0.40 0.47 0.58 0.68 0.79 0.98 1.07 1.09 1.03 1.06 1.11 1.20 1.13 0.89 0.58 0.38
0.16 0.19 0.23 0.23 0.20 0.25 0.37 0.54 0.69 0.82 0.87 0.90 0.72 0.53 0.43 0.41 0.43 0.43 0.40 0.39 0.41 0.43 0.40 0.45 0.59 0.71 0.71 0.70 0.92 1.04 1.06 1.08 1.11 1.14 1.10 0.97 0.71 0.54
0.20 0.28 0.30 0.28 0.34 0.47 0.62 0.75 0.85 0.90 0.88 0.74 0.60 0.50 0.39 0.35 0.35 0.34 0.32 0.33 0.35 0.35 0.34 0.37 0.48 0.63 0.66 0.64 0.77 0.85 0.99 1.24 1.26 1.20 1.11 0.93 0.72 0.56
0.16 0.29 0.39 0.42 0.54 0.71 0.82 0.88 0.92 0.94 0.83 0.67 0.54 0.45 0.36 0.31 0.30 0.29 0.29 0.30 0.32 0.34 0.34 0.36 0.45 0.55 0.62 0.62 0.69 0.81 0.91 1.29 1.44 1.26 1.12 1.04 0.88 0.71
0.17 0.24 0.32 0.41 0.56 0.71 0.81 0.84 0.86 0.87 0.80 0.64 0.53 0.43 0.36 0.32 0.31 0.29 0.28 0.28 0.30 0.33 0.36 0.40 0.46 0.49 0.53 0.58 0.72 0.86 0.98 1.21 1.32 1.14 0.97 1.04 1.02 0.84
0.22 0.31 0.41 0.48 0.59 0.70 0.79 0.85 0.83 0.78 0.71 0.63 0.55 0.48 0.40 0.35 0.33 0.30 0.27 0.26 0.29 0.32 0.34 0.35 0.34 0.30 0.33 0.48 0.76 0.85 0.87 1.04 1.08 0.94 0.76 0.80 0.94 0.87
0.25 0.38 0.51 0.60 0.66 0.71 0.73 0.75 0.78 0.76 0.68 0.60 0.53 0.48 0.41 0.34 0.30 0.29 0.26 0.24 0.25 0.26 0.25 0.22 0.18 0.14 0.15 0.43 0.78 0.92 0.83 0.82 0.78 0.74 0.66 0.59 0.71 0.76
0.30 0.46 0.57 0.64 0.69 0.71 0.70 0.67 0.69 0.69 0.62 0.54 0.48 0.43 0.38 0.32 0.28 0.26 0.23 0.19 0.17 0.16 0.15 0.14 0.15 0.15 0.15 0.30 0.70 0.97 0.86 0.63 0.53 0.55 0.55 0.51 0.61 0.68
0.34 0.46 0.56 0.60 0.62 0.63 0.62 0.61 0.61 0.61 0.56 0.50 0.46 0.42 0.37 0.31 0.26 0.21 0.16 0.13 0.13 0.12 0.13 0.17 0.20 0.17 0.11 0.11 0.35 0.65 0.76 0.72 0.52 0.43 0.41 0.42 0.44 0.41
0.31 0.42 0.50 0.53 0.52 0.49 0.47 0.47 0.48 0.48 0.47 0.45 0.43 0.39 0.34 0.29 0.23 0.18 0.14 0.13 0.12 0.11 0.11 0.14 0.14 0.10 0.08 0.10 0.24 0.43 0.52 0.49 0.46 0.46 0.41 0.29 0.21 0.24
0.31 0.34 0.39 0.44 0.43 0.40 0.35 0.33 0.33 0.36 0.37 0.37 0.36 0.32 0.27 0.22 0.18 0.14 0.11 0.09 0.08 0.07 0.07 0.08 0.08 0.07 0.07 0.08 0.12 0.19 0.22 0.21 0.18 0.22 0.36 0.36 0.23 0.23